Flag for Norway Weather past 2 weeks in Longyearbyen, Svalbard, Norway

Now
46 °F

Scattered clouds.


Feels Like: 40 °F
Forecast: 45 / 49 °F
Wind: 14 mph from West

Location: Svalbard Lufthavn

Current Time: Jul 23, 2014 at 10:54:17 PM

Latest Report: Jul 23, 2014 at 9:50 PM


Visibility: N/A

Pressure: 29.80 "Hg

Humidity: 93%

Dew point: 45 °F

Location of LongyearbyenLocation

Historic Weather in Longyearbyen — Graph

°F

Longyearbyen temperature yesterday

Maximum temperature yesterday: 46 °F (at 12:50 PM)
Minimum temperature yesterday: 43 °F (at 12:50 AM)
Average temperature yesterday: 44 °F

Past Weeks' High & Low Weather Summary

 TemperatureHumidityPressure
High52 °F (Jul 15, 6:50 PM)100% (Jul 10, 5:50 AM)30.39 "Hg (Jul 10, 5:50 AM)
Low39 °F (Jul 12, 1:50 AM)58% (Jul 15, 6:50 PM)29.71 "Hg (Jul 11, 10:50 PM)
Average46 °F81%30.03 "Hg
* Reported Jul 8 8:50 PM — Jul 23 8:50 PM, Longyearbyen, Weather by CustomWeather, © 2014

Note: Actual official high and low records may vary slightly from our data, if they occured in-between our weather recording intervals... More about our weather records

Advertising

Longyearbyen weather history for previous 24 hours

 ConditionsComfort  
Time TempWeatherWind HumidityBarometerVisibility
8:50 PM
Jul 23
48 °FBroken clouds.15 mph87%29.80 "HgN/A
7:50 PM48 °FBroken clouds.16 mph87%29.80 "HgN/A
6:50 PM48 °FBroken clouds.8 mph87%29.80 "HgN/A
5:50 PM46 °FBroken clouds.9 mph93%29.80 "HgN/A
4:50 PM46 °FBroken clouds.7 mph93%29.80 "HgN/A
3:50 PM46 °FBroken clouds.5 mph93%29.80 "HgN/A
2:50 PM46 °FLow clouds.3 mph93%29.80 "HgN/A
1:50 PM46 °FBroken clouds.5 mph93%29.83 "HgN/A
12:50 PM46 °FBroken clouds.No wind93%29.83 "HgN/A
11:50 AM46 °FBroken clouds.1 mph93%29.86 "HgN/A
6:50 AM45 °FDrizzle. Broken clouds.5 mph93%29.92 "Hg5 mi
5:50 AM45 °FBroken clouds.3 mph93%29.92 "HgN/A
4:50 AM45 °FSprinkles. Broken clouds.2 mph93%29.95 "HgN/A
3:50 AM45 °FDrizzle. Partly sunny.3 mph93%29.95 "HgN/A
2:50 AM45 °FPartly sunny.2 mph93%29.98 "HgN/A
1:50 AM45 °FLight rain. Partly sunny.2 mph87%29.98 "HgN/A
Weather by CustomWeather, © 2014

See weather overviewHow to use our weather pages